Regional Weather Roundup
Issued by NWS

Home | Current Version | Previous Version | Text Only | Print | Product List | Glossary Off
Versions: 1 2 3 4 5 6 7 8 9 10 11 12 13 14 15 16 17 18 19 20 21 22 23 24 25 26 27

000
ASUS43 KDMX 162207
RWRIA

WEATHER ROUNDUP FOR IOWA
NATIONAL WEATHER SERVICE DES MOINES IA
500 PM CDT WED APR 16 2014

NOTE: "FAIR" INDICATES FEW OR NO CLOUDS BELOW 12,000 FEET WITH NO
SIGNIFICANT WEATHER AND/OR OBSTRUCTIONS TO VISIBILITY.

* - THESE STATIONS ARE NOT NWS STATIONS...THUS NOT UNDER NWS
QUALITY CONTROL.  THEY ALSO DO NOT REPORT WEATHER SUCH
AS PRECIPITATION OR FOG.

IAZ001>003-012>014-020>022-031>034-043>046-162300-
   NORTHWEST IOWA

CITY           SKY/WX    TMP DP  RH WIND       PRES   REMARKS
CARROLL *      CLOUDY    61  32  33 S26G39    29.67S
CHEROKEE *     CLOUDY    51  35  54 W18G28    29.69R
DENISON *      CLOUDY    63  28  27 SW18G28   29.65S
LE MARS *      CLOUDY    46  41  81 NW25G38   29.71R
ORANGE CITY *  DRIZZLE   45  39  81 NW9       29.71R
SHELDON *      RAIN      45  39  81 N23G31    29.71R
SIOUX CITY     LGT RAIN  42  35  76 NW28G41   29.74R
SPENCER        LGT RAIN  45  37  73 N25       29.72R
STORM LAKE *   PTSUNNY   59  28  31 W22G29    29.66R
$$

IAZ055>058-069>071-079>083-090>094-162300-
   SOUTHWEST IOWA

CITY           SKY/WX    TMP DP  RH WIND       PRES   REMARKS
ATLANTIC *     PTSUNNY   66  30  26 SW31G43   29.67F
AUDUBON *      MOSUNNY   64  19  17 S20G30    29.69F
CLARINDA *     MOSUNNY   66  32  28 S31G39    29.73S
COUNCIL BLFS * PTSUNNY   63  37  39 W32G40    29.70R
CRESTON *      MOSUNNY   63  34  34 S36G43    29.75F
HARLAN  *      CLOUDY    64  30  27 SW22G31   29.70S
LAMONI         PTSUNNY   63  33  32 SW28G38   29.81S
RED OAK *      CLOUDY    68  30  24 SW29G39   29.69F
SHENANDOAH *   PTSUNNY   70  30  23 SW24G38   29.71S
$$

IAZ047>049-059>061-072>074-084-162300-
   CENTRAL IOWA

CITY           SKY/WX    TMP DP  RH WIND       PRES   REMARKS
AMES           CLOUDY    61  32  33 S26G36    29.76F
ANKENY *       PTSUNNY   63  32  31 S20G35    29.77F
CHARITON *     CLOUDY    61  34  36 S25G40    29.82S
DES MOINES     CLOUDY    63  31  30 SW30G37   29.78F
GRINNELL*      PTSUNNY   60  29  31 S26G36    29.83R
KNOXVILLE *    PTSUNNY   63  32  31 S25G35    29.81S
MARSHALLTOWN   CLOUDY    58  33  39 S20G35    29.79S
NEWTON *       CLOUDY    61  32  33 S22G36    29.81S
PELLA *        MOSUNNY   61  33  34 S26G32    29.84S
PERRY *        PTSUNNY   62  28  27 S29G37    29.72F
$$

IAZ004>006-015-016-023>025-035-036-162300-
   NORTH CENTRAL IOWA

CITY           SKY/WX    TMP DP  RH WIND       PRES   REMARKS
ALGONA *       CLOUDY    57  34  41 S18G25    29.69F
CLARION *      CLOUDY    59  32  36 S29G36    29.72F
ESTHERVILLE    CLOUDY    54  35  48 W21       29.70S
FORT DODGE *   CLOUDY    59  34  38 S18G31    29.71F
MASON CITY     CLOUDY    56  35  45 S22G29    29.76S
FOREST CITY *  LGT RAIN  55  34  44 S25G31    29.74S
IOWA FALLS *   CLOUDY    58  33  38 S23G30    29.78F
$$

IAZ007>011-017>019-026>030-037>042-050>054-066-162300-
   NORTHEAST IOWA

CITY           SKY/WX    TMP DP  RH WIND       PRES   REMARKS
CEDAR RAPIDS   CLOUDY    57  28  33 S22G37    29.87F
CHARLES CITY * CLOUDY    55  34  44 S25       29.81R
CLINTON *      MOSUNNY   55  27  33 S30G36    30.00F
DECORAH *      CLOUDY    54  30  40 S17G28    29.85R
DUBUQUE        CLOUDY    52  27  38 S26G37    29.95F
MONTICELLO *   CLOUDY    55  30  38 SE26G36   29.90F
OELWEIN *      CLOUDY   N/A N/A N/A S25G37    29.85S
WATERLOO       CLOUDY    58  29  33 S30G38    29.82S
$$

IAZ064-065-067-068-078-162300-
   EAST CENTRAL IOWA

CITY           SKY/WX    TMP DP  RH WIND       PRES   REMARKS
DAVENPORT      PTSUNNY   56  26  31 S28G37    29.98F
IOWA CITY      CLOUDY    56  29  35 S26G35    29.91F
MT. PLEASANT * CLOUDY    60  25  26 SE32G39   29.90F
MUSCATINE *    CLOUDY    59  27  29 S20G35    29.93F
QUAD CITIES    MOSUNNY   56  24  29 SE17G35   29.98F
$$

IAZ062-063-075>077-085>089-095>099-162300-
   SOUTHEAST IOWA

CITY           SKY/WX    TMP DP  RH WIND       PRES   REMARKS
BURLINGTON     PTSUNNY   57  27  31 S20G31    29.95F
FAIRFIELD *    PTSUNNY   59  27  29 S26G38    29.88S
FORT MADISON * CLOUDY    57  28  33 SE25G33   29.94F
KEOKUK *       PTSUNNY   61  27  27 S18G33    29.93F
OSKALOOSA *      N/A     62  32  33 S30G38    29.86S
CENTERVILLE *    N/A     63  32  31 S25G31    29.87R
OTTUMWA        PTSUNNY   61  29  29 S30G40    29.86S
WASHINGTON *   CLOUDY    59  28  31 S26G36    29.89F
$$

ABBREVIATIONS USED IN REMARKS
   TC - TEMPERATURES IN CELSIUS
  WCI - WIND CHILL INDEX
   HX - HEAT INDEX
  VSB - VISIBILITY
$$




USA.gov is the U.S. government's official web portal to all federal, state and local government web resources and services.